OneWeb SL0362

operational
NORAD ID: 49288 Int'l Des: 2021-090 Owner: ONEWEBN Country: UK Constellation: oneweb
LEOCIRCULARPOLARONEWEB_TYPE

关于 OneWeb SL0362

正在加载描述...

实时位置

正在加载3D地球...

即将过境

高度历史

Altitude vs Time

uPlot chart will show altitude changes over time

两行轨道根数

1 49288U 21090K 25257.81064487 .00000029 00000-0 40038-4 0 9992
2 49288 87.9286 359.7491 0001702 107.7055 252.4263 13.19725303190598
Epoch: Sep 14, 2025 • Age: 21 hours

当前状态

高度 1190.2 km
速度 7.26 km/s
星下点 -9.06°S, 61.36°W
发射日期 Oct 14, 2021
运行时间 3.9 years
类型 internet

技术详情

分类 Payload
质量 148.00 kg
干质量 140.00 kg
总质量 148.00 kg
长度 1.30 m
直径 1.00 m
跨度 5.00 m
形状 Trapezoid+2 pan
制造商 ONEWUS
平台类型 ARROW
阶段状态 In Orbit
所有者/国家 ONEWEBN/UK

大型星座

Loading constellations...